To NAV CANADA Home Page Login to a new session Search on AWWS site Feedback and Comments Disclaimer Vers la page française équivalente Tips FAQ What's new on the site To the Forecasts and Observations / NOTAM section To "File a Flight Plan" website Publications and other links Update of the User's profile FIC Telephone Numbers My Weather Data Folder Route Weather Data Regional Weather Data Local Weather Data To the Forecasts and Observations / NOTAM section
Request Generated 03/23/2017 at 00:08:34 UTC . Weather information available at that time is displayed.

METAR/TAF

KINDERSLEY/KINDERSLEY REGIONAL/SK    

METAR CYKY 230000Z 29011G18KT 15SM FEW035 07/02 A2960 RMK SC1 SLP046=
METAR CYKY 222300Z 25011KT 15SM FEW025 FEW070 08/02 A2959 RMK SC1AC1
SLP043 DENSITY ALT 2300FT=
METAR CYKY 222200Z 27021G26KT 15SM FEW027 SCT040 10/03 A2958 RMK
SC2SC1 SLP039 DENSITY ALT 2500FT=

CYKY - No TAF is issued for this station

Your time UTC time
Weather data provided by Environment Canada and NAV CANADA